星链-6063 (STARLINK-6063 )

导读

STARLINK-6063是美国于2023年5月31日发射的星链低轨互联网卫星,隶属于SpaceX打造的星链卫星互联网星座,这类卫星主要为全球偏远、难覆盖区域以及应急场景提供高速宽带通信服务,目前该卫星已正常入轨运行,是星链星座大规模组网进程中的组成单元,支撑星座全球覆盖能力的持续完善。

Basic Information
目录编号:
56811
目录名称:
STARLINK-6063
国际标识:
2023-078AW
轨道中心:
EARTH
卫星名称:
星链-6063
卫星全名:
星链-6063 (STARLINK-6063 )
卫星状态:
已陨落 最后检测时间 2026-05-26
发射日期:
2023-05-31 UTC
国别 :
美国 (US)
星等 :
--
Orbit Information
数据来源 国际轨道数据
星历时间: 2026-05-26T08:49:21+0800
轨道信息已过期19天
半长轴: 6535.97km
偏心率: 0.001418
轨道倾角: 69.983°
近地点辐角 251.395°
升交点赤经 75.603°
平近点角 108.574°
近地点: 148.564km
远地点: 167.102km
周期: 87.645分钟
每日圈数: 16.430007
Detailed Information
固有亮度:
5
最大亮度:
2.5
卫星平台:
Starlink v1.5
覆盖范围:
全球
运营商:
太空探索技术公司
运营商所在国:
美国
制造商(研发单位):
太空探索技术公司
制造商所在国:
美国
使用方式:
暂无
Satellite Introduction
星链(Starlink)计划是由太空探索技术公司(SpaceX)提出的一个巨型低轨卫星互联网星座项目,计划在2019年至2024年间在太空搭建由约1.2万颗卫星组成的“星链”网络,其中1584颗将部署在地球上空550千米处的近地轨道,并从2020年开始工作。该卫星仍在工作。